Tracking 29606 objects as of 19-Sep-2024
HD Live streaming from Space Station
objects crossing your sky now

CSC-2

Track CSC-2 now!
10-day predictions
CSC-2 is classified as:


NORAD ID: 58021
Int'l Code: 2023-155F
Perigee: 554.2 km
Apogee: 561.5 km
Inclination: 97.6 °
Period: 95.7 minutes
Semi major axis: 6928 km
RCS: Unknown
Launch date: October 9, 2023
Source: Netherlands (NETH)
Launch site: FRENCH GUIANA (FRGUI)

Uplink (MHz):
Downlink (MHz): 401.250
Beacon (MHz):
Mode: 1200bps BPSK
Call sign: CSC2
Status: Active

Your satellite tracking list
Your tracking list is empty




NASA's NSSDC Master Catalog

Two Line Element Set (TLE):
1 58021U 23155F   24262.79167670  .00011732  00000-0  82418-3 0  9991
2 58021  97.6197 331.2678 0005292 268.8450  91.2171 15.05264387 51871
Source of the keplerian elements: AFSPC